TimeCST,TemperatureF,Dew PointF,Humidity,Sea Level PressureIn,VisibilityMPH,Wind Direction,Wind SpeedMPH,Gust SpeedMPH,PrecipitationIn,Events,Conditions,WindDirDegrees,DateUTC
12:04 AM,57.2,55.4,94,30.00,10.0,East,5.8,-,N/A,,Mostly Cloudy,100,2012-12-20 06:04:00
12:53 AM,59.0,55.9,90,29.99,10.0,East,5.8,-,N/A,,Overcast,100,2012-12-20 06:53:00
1:48 AM,60.8,57.2,88,29.99,10.0,ESE,4.6,-,N/A,,Overcast,120,2012-12-20 07:48:00
1:53 AM,60.1,57.0,90,29.98,10.0,ESE,4.6,-,N/A,,Overcast,110,2012-12-20 07:53:00
2:41 AM,60.8,57.2,88,29.97,10.0,ESE,5.8,-,N/A,,Overcast,120,2012-12-20 08:41:00
2:53 AM,61.0,57.9,90,29.96,10.0,SE,6.9,-,N/A,,Overcast,130,2012-12-20 08:53:00
3:10 AM,60.8,57.2,88,29.96,10.0,ESE,3.5,-,0.00,,Overcast,120,2012-12-20 09:10:00
3:53 AM,62.1,57.9,86,29.94,10.0,Variable,4.6,-,0.00,,Overcast,0,2012-12-20 09:53:00
4:53 AM,63.0,61.0,93,29.94,4.0,SSW,6.9,-,0.02,Rain,Rain,210,2012-12-20 10:53:00
5:53 AM,64.9,63.0,93,29.93,6.0,SSE,6.9,-,0.00,,Overcast,160,2012-12-20 11:53:00
6:53 AM,68.0,66.0,93,29.93,6.0,SSW,9.2,-,N/A,,Overcast,210,2012-12-20 12:53:00
7:53 AM,71.1,66.9,87,29.91,8.0,South,11.5,20.7,N/A,,Overcast,170,2012-12-20 13:53:00
8:37 AM,71.6,68.0,88,29.90,9.0,South,13.8,26.5,N/A,,Overcast,170,2012-12-20 14:37:00
8:44 AM,71.6,68.0,88,29.89,9.0,South,17.3,26.5,N/A,,Overcast,180,2012-12-20 14:44:00
8:53 AM,72.0,68.0,87,29.88,9.0,South,11.5,21.9,0.00,Rain,Light Rain,170,2012-12-20 14:53:00
9:16 AM,71.6,68.0,88,29.88,8.0,South,15.0,24.2,0.00,Rain,Light Rain,180,2012-12-20 15:16:00
9:43 AM,71.6,68.0,88,29.87,4.0,South,17.3,26.5,0.01,Rain,Light Rain,190,2012-12-20 15:43:00
9:53 AM,72.0,68.0,87,29.87,3.0,South,15.0,32.2,0.03,Rain,Rain,190,2012-12-20 15:53:00
10:00 AM,71.6,68.0,88,29.86,1.8,South,12.7,24.2,0.04,Rain,Heavy Rain,170,2012-12-20 16:00:00
10:16 AM,71.6,69.8,94,29.84,3.0,South,16.1,29.9,0.11,Rain,Rain,180,2012-12-20 16:16:00
10:23 AM,71.6,69.8,94,29.85,2.0,South,23.0,32.2,0.14,Rain,Heavy Rain,190,2012-12-20 16:23:00
10:34 AM,71.6,69.8,94,29.85,3.0,West,10.4,21.9,0.16,Rain,Light Rain,270,2012-12-20 16:34:00
10:39 AM,71.6,66.2,83,29.83,2.0,West,12.7,21.9,0.18,Rain,Heavy Rain,260,2012-12-20 16:39:00
10:42 AM,71.6,66.2,83,29.83,2.0,WSW,12.7,21.9,0.18,Rain-Thunderstorm,Rain,240,2012-12-20 16:42:00
10:49 AM,71.6,69.8,94,29.83,2.0,SW,16.1,26.5,0.21,Rain-Thunderstorm,Heavy Rain,220,2012-12-20 16:49:00
10:51 AM,71.6,69.8,94,29.83,1.5,SW,15.0,26.5,0.25,Rain-Thunderstorm,Heavy Rain,220,2012-12-20 16:51:00
10:53 AM,72.0,69.1,91,29.83,1.0,WSW,15.0,26.5,0.29,Rain-Thunderstorm,Heavy Rain,240,2012-12-20 16:53:00
10:56 AM,71.6,69.8,94,29.84,0.8,West,15.0,24.2,0.07,Rain-Thunderstorm,Heavy Rain,260,2012-12-20 16:56:00
10:59 AM,71.6,69.8,94,29.84,0.5,SW,17.3,24.2,0.12,Fog-Rain,Heavy Rain,230,2012-12-20 16:59:00
11:06 AM,71.6,69.8,94,29.82,0.8,SW,12.7,24.2,0.23,Rain,Heavy Rain,230,2012-12-20 17:06:00
11:10 AM,71.6,69.8,94,29.83,1.2,SW,21.9,27.6,0.24,Rain,Light Rain,220,2012-12-20 17:10:00
11:17 AM,71.6,69.8,94,29.83,2.5,SW,18.4,27.6,0.26,Rain,Rain,230,2012-12-20 17:17:00
11:27 AM,73.4,69.8,88,29.82,6.0,SSW,13.8,25.3,0.26,Rain,Light Rain,210,2012-12-20 17:27:00
11:34 AM,73.4,69.8,88,29.82,10.0,SW,16.1,23.0,0.26,Rain,Light Rain,220,2012-12-20 17:34:00
11:49 AM,73.4,69.8,88,29.81,10.0,SW,12.7,26.5,0.26,,Overcast,220,2012-12-20 17:49:00
11:53 AM,73.0,69.1,87,29.81,10.0,SSW,10.4,19.6,0.26,,Overcast,210,2012-12-20 17:53:00
12:17 PM,71.6,68.0,88,29.83,1.8,WNW,19.6,25.3,0.06,Rain,Rain,290,2012-12-20 18:17:00
12:22 PM,68.0,64.4,88,29.84,0.8,West,18.4,28.8,0.13,Rain,Heavy Rain,280,2012-12-20 18:22:00
12:27 PM,64.4,62.6,94,29.83,1.0,WSW,12.7,28.8,0.14,Rain,Heavy Rain,250,2012-12-20 18:27:00
12:30 PM,64.4,60.8,88,29.83,2.0,WSW,11.5,26.5,0.14,Rain,Light Rain,250,2012-12-20 18:30:00
12:38 PM,64.4,60.8,88,29.83,10.0,West,8.1,-,0.14,,Mostly Cloudy,260,2012-12-20 18:38:00
12:40 PM,64.4,60.8,88,29.82,10.0,West,9.2,-,0.14,,Mostly Cloudy,260,2012-12-20 18:40:00
12:53 PM,64.9,60.1,84,29.82,10.0,West,6.9,-,0.14,,Partly Cloudy,280,2012-12-20 18:53:00
1:53 PM,66.9,57.0,70,29.82,10.0,West,11.5,-,N/A,,Clear,280,2012-12-20 19:53:00
2:53 PM,66.9,45.0,45,29.84,10.0,West,11.5,-,N/A,,Clear,280,2012-12-20 20:53:00
3:53 PM,64.0,35.1,34,29.88,10.0,WNW,19.6,25.3,N/A,,Clear,290,2012-12-20 21:53:00
4:53 PM,61.0,30.0,31,29.91,10.0,West,15.0,-,N/A,,Clear,280,2012-12-20 22:53:00
5:53 PM,57.9,33.1,39,29.97,10.0,WNW,17.3,27.6,N/A,,Clear,300,2012-12-20 23:53:00
6:53 PM,54.0,32.0,43,30.03,10.0,NW,13.8,24.2,N/A,,Clear,310,2012-12-21 00:53:00
7:53 PM,52.0,30.9,45,30.08,10.0,NW,9.2,-,N/A,,Clear,310,2012-12-21 01:53:00
8:53 PM,50.0,30.9,48,30.12,10.0,NW,12.7,21.9,N/A,,Clear,310,2012-12-21 02:53:00
9:53 PM,48.9,28.9,46,30.15,10.0,NW,12.7,23.0,N/A,,Clear,310,2012-12-21 03:53:00
10:53 PM,46.9,30.0,52,30.16,10.0,WNW,12.7,-,N/A,,Clear,300,2012-12-21 04:53:00
11:53 PM,46.9,28.0,48,30.17,10.0,NW,13.8,21.9,N/A,,Clear,310,2012-12-21 05:53:00